| time (UTC) | temp F | wind direction | speed MPH | gust MPH | rain 1hr in | rain 24hr in | rain mn in | humidity % | barometer mb |
| 20260508224539 | 66 | 248 | 0.0 | 4.0 | 0.00 | 0.00 | 0.00 | 74 | 1014.1 |
| 20260508223045 | 66 | 214 | 1.0 | 4.0 | 0.00 | 0.00 | 0.00 | 69 | 1014.2 |
| 20260508221542 | 67 | 238 | 0.0 | 3.0 | 0.00 | 0.00 | 0.00 | 71 | 1014.2 |
| 20260508220045 | 67 | 0 | 1.0 | 3.0 | 0.00 | 0.00 | 0.00 | 67 | 1014.1 |
| 20260508214559 | 68 | 215 | 1.0 | 5.0 | 0.00 | 0.00 | 0.00 | 69 | 1014.1 |
| 20260508213049 | 68 | 191 | 2.0 | 5.0 | 0.00 | 0.00 | 0.00 | 64 | 1014.0 |
| 20260508211543 | 68 | 187 | 2.0 | 6.0 | 0.00 | 0.00 | 0.00 | 63 | 1014.0 |
| 20260508210045 | 69 | 180 | 1.0 | 4.0 | 0.00 | 0.00 | 0.00 | 61 | 1014.2 |
| 20260508204542 | 69 | 210 | 3.0 | 7.0 | 0.00 | 0.00 | 0.00 | 58 | 1014.2 |
| 20260508203040 | 69 | 0 | 2.0 | 6.0 | 0.00 | 0.00 | 0.00 | 58 | 1014.3 |
| 20260508201539 | 69 | 186 | 2.0 | 7.0 | 0.00 | 0.00 | 0.00 | 59 | 1014.5 |
| 20260508200035 | 69 | 202 | 3.0 | 8.0 | 0.00 | 0.00 | 0.00 | 59 | 1014.6 |
| 20260508194553 | 69 | 171 | 3.0 | 8.0 | 0.00 | 0.00 | 0.00 | 57 | 1014.8 |
| 20260508193051 | 69 | 237 | 2.0 | 9.0 | 0.00 | 0.00 | 0.00 | 58 | 1015.3 |
| 20260508191542 | 69 | 198 | 3.0 | 7.0 | 0.00 | 0.00 | 0.00 | 57 | 1015.4 |
| 20260508190036 | 70 | 130 | 3.0 | 11.0 | 0.00 | 0.00 | 0.00 | 56 | 1015.5 |
| 20260508184535 | 70 | 299 | 1.0 | 10.0 | 0.00 | 0.00 | 0.00 | 55 | 1015.6 |
| 20260508183043 | 70 | 221 | 4.0 | 6.0 | 0.00 | 0.00 | 0.00 | 56 | 1015.8 |
| 20260508181549 | 68 | 24 | 3.0 | 10.0 | 0.00 | 0.00 | 0.00 | 57 | 1016.1 |
| 20260508180041 | 68 | 144 | 3.0 | 7.0 | 0.00 | 0.00 | 0.00 | 61 | 1016.2 |
| 20260508174540 | 69 | 70 | 4.0 | 8.0 | 0.00 | 0.00 | 0.00 | 58 | 1016.4 |
| 20260508173040 | 68 | 150 | 6.0 | 9.0 | 0.00 | 0.00 | 0.00 | 57 | 1016.6 |
| 20260508171538 | 68 | 173 | 3.0 | 9.0 | 0.00 | 0.00 | 0.00 | 56 | 1016.8 |
| 20260508170035 | 67 | 143 | 6.0 | 12.0 | 0.00 | 0.00 | 0.00 | 58 | 1016.9 |
| 20260508164535 | 68 | 73 | 4.0 | 10.0 | 0.00 | 0.00 | 0.00 | 60 | 1017.2 |
| 20260508163041 | 67 | 78 | 5.0 | 10.0 | 0.00 | 0.00 | 0.00 | 58 | 1017.5 |
| 20260508161542 | 66 | 146 | 5.0 | 12.0 | 0.00 | 0.00 | 0.00 | 59 | 1017.7 |
| 20260508160037 | 66 | 198 | 2.0 | 10.0 | 0.00 | 0.00 | 0.00 | 60 | 1017.9 |
| 20260508154535 | 66 | 165 | 3.0 | 10.0 | 0.00 | 0.00 | 0.00 | 63 | 1018.0 |
| 20260508153045 | 65 | 199 | 4.0 | 11.0 | 0.00 | 0.00 | 0.00 | 64 | 1018.2 |
| 20260508151543 | 64 | 219 | 2.0 | 9.0 | 0.00 | 0.00 | 0.00 | 67 | 1018.3 |
| 20260508150042 | 64 | 150 | 1.0 | 9.0 | 0.00 | 0.00 | 0.00 | 69 | 1018.2 |
| 20260508144541 | 63 | 90 | 6.0 | 10.0 | 0.00 | 0.00 | 0.00 | 69 | 1018.2 |
| 20260508143035 | 63 | 136 | 6.0 | 11.0 | 0.00 | 0.00 | 0.00 | 67 | 1018.1 |
| 20260508141536 | 62 | 139 | 5.0 | 10.0 | 0.00 | 0.00 | 0.00 | 69 | 1018.1 |
| 20260508140044 | 61 | 92 | 3.0 | 8.0 | 0.00 | 0.00 | 0.00 | 69 | 1018.3 |
| 20260508134535 | 61 | 55 | 4.0 | 9.0 | 0.00 | 0.01 | 0.00 | 70 | 1018.5 |
| 20260508133043 | 59 | 50 | 1.0 | 6.0 | 0.00 | 0.01 | 0.00 | 78 | 1018.5 |
| 20260508131541 | 58 | 0 | 1.0 | 3.0 | 0.00 | 0.01 | 0.00 | 82 | 1018.5 |
| 20260508130035 | 57 | 83 | 1.0 | 3.0 | 0.00 | 0.01 | 0.00 | 87 | 1018.5 |
| 20260508124542 | 55 | 0 | 0.0 | 3.0 | 0.00 | 0.13 | 0.00 | 90 | 1018.4 |
| 20260508123042 | 54 | 0 | 0.0 | 2.0 | 0.00 | 0.13 | 0.00 | 92 | 1018.0 |
| 20260508121543 | 53 | 0 | 0.0 | 2.0 | 0.00 | 0.13 | 0.00 | 93 | 1017.8 |
| 20260508120041 | 51 | 0 | 0.0 | 0.0 | 0.00 | 0.13 | 0.00 | 96 | 1017.7 |
| 20260508114535 | 50 | 0 | 0.0 | 0.0 | 0.00 | 0.37 | 0.00 | 96 | 1017.4 |
| 20260508113044 | 49 | 0 | 0.0 | 2.0 | 0.00 | 0.37 | 0.00 | 96 | 1017.2 |
| 20260508111557 | 49 | 0 | 0.0 | 1.0 | 0.00 | 0.37 | 0.00 | 96 | 1016.9 |
| 20260508110041 | 48 | 0 | 0.0 | 0.0 | 0.00 | 0.37 | 0.00 | 95 | 1016.4 |
| 20260508104539 | 48 | 0 | 0.0 | 0.0 | 0.00 | 0.42 | 0.00 | 95 | 1016.0 |
| 20260508103037 | 49 | 0 | 0.0 | 2.0 | 0.00 | 0.42 | 0.00 | 94 | 1015.9 |
| 20260508101536 | 49 | 311 | 0.0 | 3.0 | 0.00 | 0.42 | 0.00 | 93 | 1015.8 |
| 20260508100036 | 49 | 319 | 1.0 | 3.0 | 0.00 | 0.42 | 0.00 | 94 | 1015.5 |
| 20260508094545 | 49 | 0 | 0.0 | 0.0 | 0.00 | 0.43 | 0.00 | 93 | 1015.3 |
| 20260508093040 | 50 | 0 | 0.0 | 1.0 | 0.00 | 0.43 | 0.00 | 92 | 1015.3 |
| 20260508091544 | 51 | 94 | 0.0 | 3.0 | 0.00 | 0.43 | 0.00 | 91 | 1015.3 |
| 20260508090036 | 51 | 58 | 2.0 | 8.0 | 0.00 | 0.43 | 0.00 | 90 | 1015.0 |
| 20260508084534 | 51 | 296 | 4.0 | 7.0 | 0.00 | 0.45 | 0.00 | 89 | 1014.8 |
| 20260508083037 | 51 | 343 | 2.0 | 8.0 | 0.00 | 0.45 | 0.00 | 90 | 1014.6 |
| 20260508081548 | 52 | 302 | 3.0 | 6.0 | 0.00 | 0.45 | 0.00 | 90 | 1014.6 |
| 20260508080041 | 52 | 326 | 2.0 | 5.0 | 0.00 | 0.45 | 0.00 | 91 | 1014.5 |
| 20260508074541 | 52 | 339 | 3.0 | 5.0 | 0.00 | 0.58 | 0.00 | 92 | 1014.6 |
| 20260508073035 | 52 | 332 | 3.0 | 5.0 | 0.00 | 0.58 | 0.00 | 92 | 1014.9 |
| 20260508071536 | 53 | 333 | 2.0 | 7.0 | 0.00 | 0.58 | 0.00 | 92 | 1014.8 |
| 20260508070044 | 53 | 327 | 1.0 | 5.0 | 0.00 | 0.58 | 0.00 | 93 | 1014.7 |
| 20260508064542 | 53 | 303 | 1.0 | 4.0 | 0.00 | 0.70 | 0.00 | 93 | 1014.8 |
| 20260508063041 | 54 | 304 | 1.0 | 4.0 | 0.00 | 0.70 | 0.00 | 92 | 1014.5 |
| 20260508061538 | 54 | 0 | 0.0 | 0.0 | 0.00 | 0.70 | 0.00 | 92 | 1014.5 |
| 20260508060035 | 54 | 0 | 0.0 | 0.0 | 0.00 | 0.70 | 0.00 | 90 | 1014.7 |
| 20260508054544 | 53 | 0 | 0.0 | 1.0 | 0.00 | 1.03 | 0.00 | 91 | 1014.6 |
| 20260508053045 | 54 | 0 | 0.0 | 1.0 | 0.00 | 1.03 | 0.00 | 90 | 1014.8 |
| 20260508051546 | 55 | 286 | 1.0 | 3.0 | 0.00 | 1.03 | 0.00 | 87 | 1014.8 |
| 20260508050045 | 56 | 0 | 0.0 | 6.0 | 0.00 | 1.03 | 0.00 | 85 | 1014.7 |
| 20260508044543 | 56 | 319 | 2.0 | 3.0 | 0.00 | 1.25 | 0.00 | 85 | 1014.6 |
| 20260508043049 | 56 | 301 | 1.0 | 3.0 | 0.00 | 1.25 | 0.00 | 85 | 1014.5 |
| 20260508041541 | 56 | 311 | 2.0 | 4.0 | 0.00 | 1.25 | 0.00 | 84 | 1014.5 |
| 20260508040038 | 57 | 0 | 0.0 | 1.0 | 0.00 | 1.25 | 0.00 | 84 | 1014.4 |
| 20260508034539 | 57 | 0 | 0.0 | 3.0 | 0.00 | 1.33 | 1.25 | 82 | 1014.2 |
| 20260508033042 | 58 | 335 | 1.0 | 4.0 | 0.00 | 1.33 | 1.25 | 80 | 1014.2 |
| 20260508031542 | 59 | 278 | 2.0 | 7.0 | 0.00 | 1.33 | 1.25 | 78 | 1014.4 |
| 20260508030041 | 59 | 236 | 3.0 | 8.0 | 0.00 | 1.33 | 1.25 | 78 | 1014.1 |
| 20260508024541 | 60 | 287 | 1.0 | 3.0 | 0.00 | 1.37 | 1.25 | 78 | 1014.1 |
| 20260508023035 | 60 | 0 | 0.0 | 3.0 | 0.00 | 1.37 | 1.25 | 76 | 1013.9 |
| 20260508021536 | 61 | 310 | 3.0 | 10.0 | 0.00 | 1.37 | 1.25 | 74 | 1013.5 |
| 20260508020042 | 61 | 294 | 3.0 | 10.0 | 0.00 | 1.37 | 1.25 | 74 | 1013.5 |
| 20260508014541 | 62 | 291 | 5.0 | 9.0 | 0.00 | 1.44 | 1.25 | 72 | 1013.4 |
| 20260508013037 | 62 | 291 | 4.0 | 10.0 | 0.00 | 1.44 | 1.25 | 72 | 1013.1 |
| 20260508011536 | 63 | 293 | 3.0 | 11.0 | 0.00 | 1.44 | 1.25 | 71 | 1012.9 |
| 20260508010042 | 64 | 266 | 3.0 | 13.0 | 0.00 | 1.44 | 1.25 | 70 | 1012.7 |
| 20260508004545 | 64 | 285 | 5.0 | 10.0 | 0.00 | 1.95 | 1.25 | 68 | 1012.2 |
| 20260508003040 | 65 | 323 | 4.0 | 12.0 | 0.00 | 1.95 | 1.25 | 67 | 1012.0 |
| 20260508001539 | 66 | 278 | 5.0 | 15.0 | 0.00 | 1.95 | 1.25 | 66 | 1011.8 |
| 20260508000035 | 67 | 280 | 4.0 | 14.0 | 0.00 | 1.95 | 1.25 | 66 | 1011.6 |
| 20260507234549 | 68 | 291 | 9.0 | 16.0 | 0.00 | 1.95 | 1.25 | 65 | 1011.2 |
| 20260507233040 | 68 | 312 | 4.0 | 19.0 | 0.00 | 1.95 | 1.25 | 67 | 1011.0 |
| 20260507231546 | 69 | 301 | 6.0 | 15.0 | 0.00 | 1.95 | 1.25 | 65 | 1010.7 |
| 20260507230042 | 70 | 321 | 7.0 | 13.0 | 0.00 | 1.95 | 1.25 | 66 | 1010.4 |